Location: Les Jeannots
(43.2262°N, 5.5774°E)
Time: 19:19:51
(UTC+00:00)

Cosmos 1933 - Pass Details

Date: 05 July 2020
Orbit: 548 x 563 km, 82.5° (Epoch: 11 August)

Event Time Altitude Azimuth Distance (km) Brightness Sun altitude
Rises 23:33:00 0° 347° (NNW) 2,729 8.2 -24.1°
Reaches altitude 10° 23:35:12 10° 343° (NNW) 1,832 7.0 -24.1°
Enters shadow 23:38:44 53° 293° (WNW) 679 3.8 -24.1°
